,,PA_Meas_PMT16A,,PR_Meas_QMR101_102,,RH_Meas_QMH101,,SR_Meas_QMS101,,TA_Meas_QMH101,,GenWind,,GenWind,
time,status,PA,status,PR,status,RH,status,SR,status,TA,status,DirAvg,status,SpdAvg,
2014-02-28, 07:18:04,VALID,917.949,VALID,0,VALID,83.8347,VALID,54.3652,VALID,19.8993,VALID,162,VALID,1.3668,
2014-02-28, 07:19:04,VALID,917.965,VALID,0,VALID,83.9109,VALID,56.0843,VALID,19.9188,VALID,154,VALID,1.27031,
2014-02-28, 07:20:04,VALID,917.977,VALID,0,VALID,84.0939,VALID,57.9108,VALID,19.8783,VALID,159,VALID,1.39648,
2014-02-28, 07:21:04,VALID,917.982,VALID,0,VALID,83.9872,VALID,59.8447,VALID,19.9188,VALID,147,VALID,1.4875,
2014-02-28, 07:22:04,VALID,917.985,VALID,0,VALID,83.3011,VALID,61.7787,VALID,19.9578,VALID,114,VALID,2.67773,
2014-02-28, 07:23:04,VALID,918.025,VALID,0,VALID,82.775,VALID,64.1424,VALID,20.0749,VALID,155,VALID,1.38086,
2014-02-28, 07:24:04,VALID,918.027,VALID,0,VALID,82.6378,VALID,66.1837,VALID,20.1123,VALID,157,VALID,1.74453,
2014-02-28, 07:25:04,VALID,918.044,VALID,0,VALID,82.8284,VALID,68.6549,VALID,20.1318,VALID,154,VALID,1.69141,
2014-02-28, 07:26:04,VALID,918.018,VALID,0,VALID,82.5006,VALID,71.126,VALID,20.1513,VALID,130,VALID,1.67422,
2014-02-28, 07:27:04,VALID,918.025,VALID,0,VALID,82.6378,VALID,74.1344,VALID,20.1919,VALID,139,VALID,1.62266,
2014-02-28, 07:28:04,VALID,918.032,VALID,0,VALID,81.6392,VALID,76.6055,VALID,20.2309,VALID,157,VALID,2.41172,
2014-02-28, 07:29:04,VALID,918.048,VALID,0,VALID,81.441,VALID,78.6469,VALID,20.3479,VALID,151,VALID,1.26602,
2014-02-28, 07:30:04,VALID,918.023,VALID,0,VALID,81.5477,VALID,80.5809,VALID,20.3869,VALID,113,VALID,2.05859,
2014-02-28, 07:31:04,VALID,918.038,VALID,0,VALID,81.1741,VALID,82.1925,VALID,20.3869,VALID,143,VALID,1.03633,
2014-02-28, 07:32:04,VALID,918.024,VALID,0,VALID,80.9988,VALID,84.2339,VALID,20.4259,VALID,136,VALID,1.94023,
2014-02-28, 07:33:04,VALID,918.018,VALID,0,VALID,81.4257,VALID,86.3827,VALID,20.4454,VALID,172,VALID,1.72031,
2014-02-28, 07:34:04,VALID,918.005,VALID,0,VALID,80.6405,VALID,88.7464,VALID,20.4634,VALID,138,VALID,2.48984,
2014-02-28, 07:35:04,VALID,918.057,VALID,0,VALID,80.793,VALID,91.6473,VALID,20.5235,VALID,99,VALID,1.36484,
2014-02-28, 07:36:04,VALID,918.063,VALID,0,VALID,80.206,VALID,94.2259,VALID,20.5219,VALID,143,VALID,1.5625,
2014-02-28, 07:37:04,VALID,918.078,VALID,0,VALID,80.3279,VALID,96.9119,VALID,20.5414,VALID,130,VALID,2.64258,
2014-02-28, 07:38:04,VALID,918.113,VALID,0,VALID,80.3432,VALID,99.9203,VALID,20.582,VALID,144,VALID,2.37383,
2014-02-28, 07:39:04,VALID,918.142,VALID,0,VALID,79.8858,VALID,101.747,VALID,20.5609,VALID,163,VALID,2.31055,
2014-02-28, 07:40:04,VALID,918.147,VALID,0,VALID,79.6342,VALID,104.11,VALID,20.6194,VALID,156,VALID,2.40937,
2014-02-28, 07:41:04,VALID,918.16,VALID,0,VALID,79.2454,VALID,104.54,VALID,20.6975,VALID,150,VALID,1.94648,
2014-02-28, 07:42:04,VALID,918.207,VALID,0,VALID,79.5885,VALID,107.011,VALID,20.7771,VALID,152,VALID,0.869531,
2014-02-28, 07:43:04,VALID,918.201,VALID,0,VALID,79.9696,VALID,109.805,VALID,20.7365,VALID,123,VALID,1.725,
2014-02-28, 07:44:04,VALID,918.22,VALID,0,VALID,80.0078,VALID,111.846,VALID,20.7576,VALID,156,VALID,1.41719,
2014-02-28, 07:45:04,VALID,918.218,VALID,0,VALID,79.1082,VALID,113.028,VALID,20.756,VALID,157,VALID,1.69453,
2014-02-28, 07:46:04,VALID,918.227,VALID,0,VALID,79.0472,VALID,116.144,VALID,20.795,VALID,141,VALID,1.08516,
2014-02-28, 07:47:04,VALID,918.239,VALID,0,VALID,78.7194,VALID,119.045,VALID,20.8535,VALID,156,VALID,1.78398,
2014-02-28, 07:48:04,VALID,918.234,VALID,0,VALID,79.1311,VALID,121.194,VALID,20.8535,VALID,152,VALID,1.78555,
2014-02-28, 07:49:04,VALID,918.276,VALID,0,VALID,79.0167,VALID,123.128,VALID,20.8535,VALID,158,VALID,1.28633,
2014-02-28, 07:50:04,VALID,918.276,VALID,0,VALID,78.9405,VALID,126.028,VALID,20.873,VALID,168,VALID,1.6375,
2014-02-28, 07:51:04,VALID,918.305,VALID,0,VALID,79.2149,VALID,128.607,VALID,20.9136,VALID,151,VALID,0.96875,
2014-02-28, 07:52:04,VALID,918.279,VALID,0,VALID,78.8033,VALID,133.12,VALID,20.912,VALID,148,VALID,1.88867,
2014-02-28, 07:53:04,VALID,918.312,VALID,0,VALID,79.2683,VALID,136.773,VALID,20.9722,VALID,161,VALID,0.505078,
2014-02-28, 07:54:04,VALID,918.326,VALID,0,VALID,77.9571,VALID,139.566,VALID,20.9917,VALID,146,VALID,2.12852,
2014-02-28, 07:55:04,VALID,918.34,VALID,0,VALID,78.5974,VALID,140.64,VALID,21.0112,VALID,124,VALID,1.40703,
2014-02-28, 07:56:04,VALID,918.321,VALID,0,VALID,78.9481,VALID,143.434,VALID,21.0096,VALID,124,VALID,0.969922,
2014-02-28, 07:57:04,VALID,918.319,VALID,0,VALID,78.971,VALID,144.616,VALID,21.0518,VALID,115,VALID,1.55156,
2014-02-28, 07:58:04,VALID,918.329,VALID,0,VALID,79.3064,VALID,145.26,VALID,21.0307,VALID,127,VALID,1.51875,
2014-02-28, 07:59:04,VALID,918.361,VALID,0,VALID,78.3077,VALID,147.839,VALID,21.0502,VALID,144,VALID,2.02539,
2014-02-28, 08:00:04,VALID,918.388,VALID,0,VALID,78.6127,VALID,151.492,VALID,21.0892,VALID,162,VALID,1.3793,
2014-02-28, 08:01:04,VALID,918.392,VALID,0,VALID,77.9418,VALID,154.285,VALID,21.1282,VALID,142,VALID,2.15234,
2014-02-28, 08:02:04,VALID,918.448,VALID,0,VALID,78.2391,VALID,157.079,VALID,21.1478,VALID,157,VALID,1.36992,
2014-02-28, 08:03:04,VALID,918.439,VALID,0,VALID,77.5073,VALID,159.55,VALID,21.1852,VALID,153,VALID,1.4,
2014-02-28, 08:04:04,VALID,918.456,VALID,0,VALID,78.0333,VALID,158.153,VALID,21.2047,VALID,144,VALID,1.175,
2014-02-28, 08:05:04,VALID,918.441,VALID,0,VALID,77.4539,VALID,158.691,VALID,21.2437,VALID,149,VALID,1.62773,
2014-02-28, 08:06:04,VALID,918.474,VALID,0,VALID,78.4373,VALID,161.377,VALID,21.2437,VALID,146,VALID,1.3125,
2014-02-28, 08:07:04,VALID,918.486,VALID,0,VALID,77.614,VALID,166.641,VALID,21.2421,VALID,142,VALID,2.18047,
2014-02-28, 08:08:04,VALID,918.509,VALID,0,VALID,78.0104,VALID,167.178,VALID,21.3022,VALID,172,VALID,1.14492,
2014-02-28, 08:09:04,VALID,918.5,VALID,0,VALID,77.8579,VALID,170.617,VALID,21.3006,VALID,157,VALID,1.34414,
2014-02-28, 08:10:04,VALID,918.515,VALID,0,VALID,78.0409,VALID,174.592,VALID,21.3591,VALID,136,VALID,0.869141,
2014-02-28, 08:11:04,VALID,918.536,VALID,0,VALID,77.0346,VALID,177.17,VALID,21.4193,VALID,115,VALID,1.20469,
2014-02-28, 08:12:04,VALID,918.52,VALID,0,VALID,76.7144,VALID,180.394,VALID,21.4372,VALID,153,VALID,1.69062,
2014-02-28, 08:13:04,VALID,918.564,VALID,0,VALID,76.8517,VALID,181.683,VALID,21.4973,VALID,136,VALID,1.51992,
2014-02-28, 08:14:04,VALID,918.549,VALID,0,VALID,77.0956,VALID,183.187,VALID,21.5347,VALID,135,VALID,1.4082,
2014-02-28, 08:15:04,VALID,918.56,VALID,0,VALID,76.6916,VALID,185.443,VALID,21.5559,VALID,133,VALID,1.44883,
2014-02-28, 08:16:04,VALID,918.576,VALID,0,VALID,76.6687,VALID,188.989,VALID,21.5737,VALID,123,VALID,1.78359,
2014-02-28, 08:17:04,VALID,918.583,VALID,0,VALID,77.3396,VALID,196.51,VALID,21.5932,VALID,125,VALID,1.13008,
2014-02-28, 08:18:04,VALID,918.614,VALID,0,VALID,77.4082,VALID,197.692,VALID,21.6323,VALID,158,VALID,0.988281,
2014-02-28, 08:19:04,VALID,918.618,VALID,0,VALID,76.7068,VALID,202.527,VALID,21.6729,VALID,124,VALID,1.19922,
2014-02-28, 08:20:04,VALID,918.649,VALID,0,VALID,76.2951,VALID,208.328,VALID,21.6713,VALID,141,VALID,1.50547,
2014-02-28, 08:21:04,VALID,918.652,VALID,0,VALID,76.4324,VALID,204.783,VALID,21.7315,VALID,144,VALID,1.58633,
2014-02-28, 08:22:04,VALID,918.676,VALID,0,VALID,76.2418,VALID,200.055,VALID,21.7298,VALID,166,VALID,1.49688,
2014-02-28, 08:23:04,VALID,918.669,VALID,0,VALID,76.1579,VALID,207.791,VALID,21.7103,VALID,128,VALID,1.98906,
2014-02-28, 08:24:04,VALID,918.69,VALID,0,VALID,76.0664,VALID,211.337,VALID,21.7103,VALID,137,VALID,1.77852,
2014-02-28, 08:25:04,VALID,918.748,VALID,0,VALID,76.8212,VALID,211.981,VALID,21.7103,VALID,146,VALID,1.60898,
2014-02-28, 08:26:04,VALID,918.704,VALID,0,VALID,76.2113,VALID,208.973,VALID,21.7103,VALID,139,VALID,2.37695,
2014-02-28, 08:27:04,VALID,918.742,VALID,0,VALID,76.7602,VALID,214.238,VALID,21.7103,VALID,146,VALID,1.20039,
2014-02-28, 08:28:04,VALID,918.735,VALID,0,VALID,77.9418,VALID,222.833,VALID,21.7298,VALID,155,VALID,1.04062,
2014-02-28, 08:29:04,VALID,918.735,VALID,0,VALID,76.8745,VALID,218.643,VALID,21.7477,VALID,133,VALID,2.00156,
2014-02-28, 08:30:04,VALID,918.766,VALID,0,VALID,75.6472,VALID,218.75,VALID,21.7493,VALID,155,VALID,1.67148,
2014-02-28, 08:31:04,VALID,918.762,VALID,0,VALID,76.4934,VALID,226.593,VALID,21.8079,VALID,150,VALID,1.22617,
2014-02-28, 08:32:04,VALID,918.77,VALID,0,VALID,76.4019,VALID,230.246,VALID,21.8664,VALID,139,VALID,1.65,
2014-02-28, 08:33:04,VALID,918.8,VALID,0,VALID,76.5467,VALID,233.47,VALID,21.9054,VALID,140,VALID,1.73125,
2014-02-28, 08:34:04,VALID,918.787,VALID,0,VALID,76.9355,VALID,232.718,VALID,21.8664,VALID,133,VALID,1.82109,
2014-02-28, 08:35:04,VALID,918.806,VALID,0,VALID,77.9723,VALID,233.147,VALID,21.8664,VALID,137,VALID,1.12344,
2014-02-28, 08:36:04,VALID,918.839,VALID,0,VALID,77.6521,VALID,246.255,VALID,21.9054,VALID,140,VALID,1.69492,
2014-02-28, 08:37:04,VALID,918.806,VALID,0,VALID,76.9584,VALID,252.379,VALID,21.964,VALID,119,VALID,1.17422,
2014-02-28, 08:38:04,VALID,918.858,VALID,0,VALID,76.7983,VALID,248.082,VALID,22.042,VALID,153,VALID,1.06797,
2014-02-28, 08:39:04,VALID,918.858,VALID,0,VALID,75.8987,VALID,250.445,VALID,22.0615,VALID,170,VALID,2.42461,
2014-02-28, 08:40:04,VALID,918.863,VALID,0,VALID,75.9521,VALID,256.677,VALID,22.0615,VALID,169,VALID,1.54844,
2014-02-28, 08:41:04,VALID,918.894,VALID,0,VALID,76.44,VALID,257.859,VALID,22.1201,VALID,140,VALID,1.82266,
2014-02-28, 08:42:04,VALID,918.878,VALID,0,VALID,75.1059,VALID,261.082,VALID,22.0989,VALID,139,VALID,2.38672,
2014-02-28, 08:43:04,VALID,918.897,VALID,0,VALID,75.792,VALID,269.892,VALID,22.1591,VALID,173,VALID,1.43555,
2014-02-28, 08:44:04,VALID,918.895,VALID,0,VALID,75.7386,VALID,271.611,VALID,22.1786,VALID,153,VALID,1.32813,
2014-02-28, 08:45:04,VALID,918.873,VALID,0,VALID,74.7857,VALID,266.991,VALID,22.1591,VALID,134,VALID,3.05859,
2014-02-28, 08:46:04,VALID,918.886,VALID,0,VALID,76.4324,VALID,253.776,VALID,22.1591,VALID,162,VALID,1.86602,
2014-02-28, 08:47:04,VALID,918.909,VALID,0,VALID,76.4095,VALID,275.049,VALID,22.1981,VALID,132,VALID,2.0668,
2014-02-28, 08:48:04,VALID,918.921,VALID,0,VALID,75.9978,VALID,277.628,VALID,22.1786,VALID,147,VALID,1.41367,
2014-02-28, 08:49:04,VALID,918.912,VALID,0,VALID,76.4324,VALID,277.628,VALID,22.2371,VALID,137,VALID,2.18047,
2014-02-28, 08:50:04,VALID,918.928,VALID,0,VALID,76.0969,VALID,283.215,VALID,22.2974,VALID,140,VALID,0.9625,
2014-02-28, 08:51:04,VALID,918.931,VALID,0,VALID,75.7996,VALID,284.827,VALID,22.395,VALID,163,VALID,2.22383,
2014-02-28, 08:52:04,VALID,918.931,VALID,0,VALID,74.6714,VALID,284.074,VALID,22.3542,VALID,150,VALID,1.13125,
2014-02-28, 08:53:04,VALID,918.927,VALID,0,VALID,75.0983,VALID,301.695,VALID,22.3737,VALID,135,VALID,1.60898,
2014-02-28, 08:54:04,VALID,918.959,VALID,0,VALID,75.266,VALID,308.571,VALID,22.4535,VALID,125,VALID,1.16836,
2014-02-28, 08:55:04,VALID,918.945,VALID,0,VALID,74.6256,VALID,291.595,VALID,22.5299,VALID,158,VALID,1.35938,
2014-02-28, 08:56:04,VALID,918.971,VALID,0,VALID,73.4897,VALID,288.157,VALID,22.5884,VALID,160,VALID,1.55977,
2014-02-28, 08:57:04,VALID,918.982,VALID,0,VALID,74.1453,VALID,307.067,VALID,22.5884,VALID,163,VALID,1.98477,
2014-02-28, 08:58:04,VALID,919.017,VALID,0,VALID,74.153,VALID,310.827,VALID,22.6079,VALID,143,VALID,2.27695,
2014-02-28, 08:59:04,VALID,918.987,VALID,0,VALID,73.9319,VALID,306.53,VALID,22.5884,VALID,110,VALID,2.39766,
2014-02-28, 09:00:04,VALID,918.997,VALID,0,VALID,74.8238,VALID,319.53,VALID,22.6079,VALID,166,VALID,1.41758,
2014-02-28, 09:01:04,VALID,918.984,VALID,0,VALID,74.2292,VALID,327.91,VALID,22.6274,VALID,182,VALID,1.625,
2014-02-28, 09:02:04,VALID,918.988,VALID,0,VALID,73.6498,VALID,336.506,VALID,22.7055,VALID,150,VALID,1.80859,
2014-02-28, 09:03:04,VALID,918.961,VALID,0,VALID,73.4897,VALID,337.365,VALID,22.7233,VALID,158,VALID,1.16367,
2014-02-28, 09:04:04,VALID,918.943,VALID,0,VALID,73.5965,VALID,321.571,VALID,22.7836,VALID,146,VALID,1.45938,
2014-02-28, 09:05:04,VALID,918.93,VALID,0,VALID,72.674,VALID,335.109,VALID,22.8031,VALID,137,VALID,1.52852,
2014-02-28, 09:06:04,VALID,918.923,VALID,0,VALID,72.9027,VALID,335.539,VALID,22.8226,VALID,150,VALID,2.16641,
2014-02-28, 09:07:04,VALID,918.942,VALID,0,VALID,73.1848,VALID,329.307,VALID,22.8226,VALID,139,VALID,1.40313,
2014-02-28, 09:08:04,VALID,918.958,VALID,0,VALID,73.2305,VALID,345.423,VALID,22.8794,VALID,183,VALID,1.84844,
2014-02-28, 09:09:04,VALID,918.973,VALID,0,VALID,73.8175,VALID,345.961,VALID,22.9185,VALID,153,VALID,1.88984,
2014-02-28, 09:10:04,VALID,918.988,VALID,0,VALID,72.9713,VALID,352.837,VALID,22.938,VALID,160,VALID,1.07656,
2014-02-28, 09:11:04,VALID,919.002,VALID,0,VALID,72.6969,VALID,349.399,VALID,22.977,VALID,176,VALID,1.37461,
2014-02-28, 09:12:04,VALID,919.026,VALID,0,VALID,73.0781,VALID,325.439,VALID,23.0356,VALID,155,VALID,1.40195,
2014-02-28, 09:13:04,VALID,919.027,VALID,0,VALID,72.1023,VALID,351.225,VALID,23.0746,VALID,130,VALID,1.84063,
2014-02-28, 09:14:04,VALID,919.05,VALID,0,VALID,72.6054,VALID,367.341,VALID,23.016,VALID,140,VALID,1.96406,
2014-02-28, 09:15:04,VALID,919.044,VALID,0,VALID,73.1467,VALID,368.093,VALID,22.977,VALID,132,VALID,1.0543,
2014-02-28, 09:16:04,VALID,919.043,VALID,0,VALID,72.5444,VALID,361.325,VALID,23.0551,VALID,154,VALID,1.60352,
2014-02-28, 09:17:04,VALID,919.037,VALID,0,VALID,71.805,VALID,367.449,VALID,23.0941,VALID,160,VALID,1.56797,
2014-02-28, 09:18:04,VALID,919.044,VALID,0,VALID,72.2395,VALID,369.812,VALID,23.0551,VALID,125,VALID,1.76484,
2014-02-28, 09:19:04,VALID,919.055,VALID,0,VALID,73.0476,VALID,342.2,VALID,23.016,VALID,132,VALID,1.75195,
2014-02-28, 09:20:04,VALID,919.082,VALID,0,VALID,72.7655,VALID,380.127,VALID,23.0551,VALID,162,VALID,1.71797,
2014-02-28, 09:21:04,VALID,919.078,VALID,0,VALID,72.8494,VALID,377.978,VALID,23.0143,VALID,141,VALID,2.19219,
2014-02-28, 09:22:04,VALID,919.091,VALID,0,VALID,73.0933,VALID,378.193,VALID,23.0356,VALID,164,VALID,2.13828,
2014-02-28, 09:23:04,VALID,919.108,VALID,0,VALID,73.5202,VALID,367.019,VALID,23.0356,VALID,174,VALID,0.569922,
2014-02-28, 09:24:04,VALID,919.099,VALID,0,VALID,73.9853,VALID,363.688,VALID,23.1739,VALID,144,VALID,0.971484,
2014-02-28, 09:25:04,VALID,919.099,VALID,0,VALID,73.6422,VALID,382.491,VALID,23.1722,VALID,158,VALID,2.52617,
2014-02-28, 09:26:04,VALID,919.096,VALID,0,VALID,72.7731,VALID,404.838,VALID,23.2307,VALID,146,VALID,1.01953,
2014-02-28, 09:27:04,VALID,919.077,VALID,0,VALID,72.3538,VALID,410.533,VALID,23.2112,VALID,158,VALID,1.36484,
2014-02-28, 09:28:04,VALID,919.126,VALID,0,VALID,73.1162,VALID,417.409,VALID,23.2698,VALID,106,VALID,1.0043,
2014-02-28, 09:29:04,VALID,919.122,VALID,0,VALID,72.0108,VALID,417.946,VALID,23.3283,VALID,174,VALID,3.23867,
2014-02-28, 09:30:04,VALID,919.106,VALID,0,VALID,71.9269,VALID,392.268,VALID,23.4277,VALID,165,VALID,1.80625,
2014-02-28, 09:31:04,VALID,919.12,VALID,0,VALID,72.9256,VALID,407.202,VALID,23.4277,VALID,130,VALID,1.81406,
2014-02-28, 09:32:04,VALID,919.175,VALID,0,VALID,72.6588,VALID,384.21,VALID,23.4472,VALID,176,VALID,1.93672,
2014-02-28, 09:33:04,VALID,919.156,VALID,0,VALID,72.7808,VALID,409.781,VALID,23.4064,VALID,116,VALID,1.99922,
2014-02-28, 09:34:04,VALID,919.149,VALID,0,VALID,73.6346,VALID,422.244,VALID,23.4082,VALID,112,VALID,2.27031,
2014-02-28, 09:35:04,VALID,919.093,VALID,0,VALID,72.9866,VALID,411.392,VALID,23.3869,VALID,83,VALID,2.1832,
2014-02-28, 09:36:04,VALID,919.118,VALID,0,VALID,73.0476,VALID,416.549,VALID,23.4454,VALID,166,VALID,2.40625,
2014-02-28, 09:37:04,VALID,919.128,VALID,0,VALID,72.7426,VALID,419.021,VALID,23.4845,VALID,103,VALID,2.78945,
2014-02-28, 09:38:04,VALID,919.037,VALID,0,VALID,71.5763,VALID,442.228,VALID,23.504,VALID,98,VALID,2.70273,
2014-02-28, 09:39:04,VALID,919.085,VALID,0,VALID,72.2395,VALID,447.707,VALID,23.5235,VALID,149,VALID,1.97344,
2014-02-28, 09:40:04,VALID,919.075,VALID,0,VALID,71.0121,VALID,437.608,VALID,23.6016,VALID,129,VALID,1.98164,
2014-02-28, 09:41:04,VALID,919.11,VALID,0,VALID,70.0592,VALID,439.219,VALID,23.6211,VALID,152,VALID,2.16523,
2014-02-28, 09:42:04,VALID,919.078,VALID,0,VALID,70.6767,VALID,440.616,VALID,23.5821,VALID,113,VALID,1.3082,
2014-02-28, 09:43:04,VALID,919.098,VALID,0,VALID,68.8242,VALID,409.136,VALID,23.7205,VALID,113,VALID,1.9293,
2014-02-28, 09:44:04,VALID,919.087,VALID,0,VALID,69.3197,VALID,437.608,VALID,23.7382,VALID,171,VALID,1.9957,
2014-02-28, 09:45:04,VALID,919.124,VALID,0,VALID,70.9588,VALID,457.699,VALID,23.7382,VALID,117,VALID,3.92734,
2014-02-28, 09:46:04,VALID,919.12,VALID,0,VALID,71.622,VALID,446.525,VALID,23.7968,VALID,165,VALID,0.944531,
2014-02-28, 09:47:04,VALID,919.068,VALID,0,VALID,70.3565,VALID,446.633,VALID,23.8163,VALID,112,VALID,1.5625,
2014-02-28, 09:48:04,VALID,919.045,VALID,0,VALID,70.8368,VALID,451.575,VALID,23.9335,VALID,111,VALID,1.975,
2014-02-28, 09:49:04,VALID,919.058,VALID,0,VALID,70.9283,VALID,456.41,VALID,23.8944,VALID,132,VALID,1.96289,
2014-02-28, 09:50:04,VALID,919.091,VALID,0,VALID,69.0148,VALID,432.128,VALID,23.953,VALID,113,VALID,2.175,
2014-02-28, 09:51:04,VALID,919.003,VALID,0,VALID,68.3897,VALID,446.955,VALID,23.8749,VALID,80,VALID,3.87344,
2014-02-28, 09:52:04,VALID,919.07,VALID,0,VALID,69.9525,VALID,466.724,VALID,23.8572,VALID,84,VALID,1.08984,
2014-02-28, 09:53:04,VALID,919.062,VALID,0,VALID,70.8596,VALID,482.303,VALID,23.9158,VALID,108,VALID,1.53008,
2014-02-28, 09:54:04,VALID,919.065,VALID,0,VALID,68.4125,VALID,478.435,VALID,23.953,VALID,153,VALID,2.36367,
2014-02-28, 09:55:04,VALID,919.07,VALID,0,VALID,68.2601,VALID,470.592,VALID,23.9957,VALID,151,VALID,1.4918,
2014-02-28, 09:56:04,VALID,919.072,VALID,0,VALID,69.7085,VALID,465.543,VALID,23.992,VALID,126,VALID,1.29414,
2014-02-28, 09:57:04,VALID,919.062,VALID,0,VALID,68.4888,VALID,483.593,VALID,24.0896,VALID,135,VALID,1.69336,
2014-02-28, 09:58:04,VALID,919.051,VALID,0,VALID,70.204,VALID,472.634,VALID,24.0896,VALID,111,VALID,2.00781,
2014-02-28, 09:59:04,VALID,919.034,VALID,0,VALID,69.9906,VALID,474.782,VALID,24.1482,VALID,129,VALID,2.22734,
2014-02-28, 10:00:04,VALID,918.981,VALID,0,VALID,69.213,VALID,490.147,VALID,24.0506,VALID,81,VALID,3.09766,
2014-02-28, 10:01:04,VALID,919.052,VALID,0,VALID,69.9677,VALID,483.27,VALID,24.0311,VALID,61,VALID,2.22969,
2014-02-28, 10:02:04,VALID,919.051,VALID,0,VALID,69.1291,VALID,459.311,VALID,24.0329,VALID,161,VALID,2.10273,
2014-02-28, 10:03:04,VALID,919.016,VALID,0,VALID,69.213,VALID,478.435,VALID,23.9725,VALID,75,VALID,2.23711,
2014-02-28, 10:04:04,VALID,919.06,VALID,0,VALID,69.8991,VALID,396.028,VALID,23.9512,VALID,113,VALID,2.73633,
2014-02-28, 10:05:04,VALID,919.11,VALID,0,VALID,71.4467,VALID,423.855,VALID,24.0115,VALID,129,VALID,1.41797,
2014-02-28, 10:06:04,VALID,919.099,VALID,0,VALID,68.2982,VALID,506.692,VALID,24.0097,VALID,168,VALID,2.91992,
2014-02-28, 10:07:04,VALID,919.075,VALID,0,VALID,69.4417,VALID,510.56,VALID,23.9725,VALID,149,VALID,2.34883,
2014-02-28, 10:08:04,VALID,919.047,VALID,0,VALID,69.3655,VALID,378.3,VALID,23.9512,VALID,139,VALID,2.71602,
2014-02-28, 10:09:04,VALID,919.048,VALID,0,VALID,70.204,VALID,388.615,VALID,24.0115,VALID,140,VALID,1.9043,
2014-02-28, 10:10:04,VALID,919.068,VALID,0,VALID,69.4112,VALID,466.402,VALID,24.0701,VALID,90,VALID,2.10469,
2014-02-28, 10:11:04,VALID,919.063,VALID,0,VALID,69.0529,VALID,491.758,VALID,23.953,VALID,166,VALID,3.23242,
2014-02-28, 10:12:04,VALID,919.083,VALID,0,VALID,68.8776,VALID,503.147,VALID,23.8926,VALID,155,VALID,2.5207,
2014-02-28, 10:13:04,VALID,919.041,VALID,0,VALID,68.8471,VALID,509.701,VALID,23.8163,VALID,176,VALID,3.97656,
2014-02-28, 10:14:04,VALID,919.056,VALID,0,VALID,69.7619,VALID,475.857,VALID,23.8749,VALID,154,VALID,1.59805,
2014-02-28, 10:15:04,VALID,919.039,VALID,0,VALID,69.1749,VALID,355.738,VALID,23.7382,VALID,137,VALID,2.90352,
2014-02-28, 10:16:04,VALID,919.064,VALID,0,VALID,70.3336,VALID,455.336,VALID,23.6992,VALID,177,VALID,2.41953,
2014-02-28, 10:17:04,VALID,919.024,VALID,0,VALID,70.0058,VALID,466.402,VALID,23.7187,VALID,143,VALID,2.41836,
2014-02-28, 10:18:04,VALID,919.048,VALID,0,VALID,70.5318,VALID,404.946,VALID,23.7187,VALID,151,VALID,1.50547,
2014-02-28, 10:19:04,VALID,919.04,VALID,0,VALID,69.7085,VALID,518.296,VALID,23.7187,VALID,149,VALID,2.25664,
2014-02-28, 10:20:04,VALID,919.012,VALID,0,VALID,69.4874,VALID,416.657,VALID,23.7986,VALID,170,VALID,2.23945,
2014-02-28, 10:21:04,VALID,919.009,VALID,0,VALID,71.3247,VALID,508.304,VALID,23.8554,VALID,93,VALID,2.00547,
2014-02-28, 10:22:04,VALID,919.017,VALID,0,VALID,69.739,VALID,526.677,VALID,23.8944,VALID,105,VALID,3.33633,
2014-02-28, 10:23:04,VALID,919.005,VALID,0,VALID,70.2269,VALID,526.569,VALID,23.8749,VALID,159,VALID,3.025,
2014-02-28, 10:24:04,VALID,919.034,VALID,0,VALID,69.152,VALID,536.024,VALID,23.7968,VALID,149,VALID,3.35547,
2014-02-28, 10:25:04,VALID,919.008,VALID,0,VALID,70.326,VALID,548.702,VALID,23.8163,VALID,148,VALID,3.61406,
2014-02-28, 10:26:04,VALID,919.032,VALID,0,VALID,71.9041,VALID,544.512,VALID,24.0311,VALID,101,VALID,1.825,
2014-02-28, 10:27:04,VALID,919.032,VALID,0,VALID,68.7785,VALID,422.136,VALID,24.2263,VALID,172,VALID,2.37305,
2014-02-28, 10:28:04,VALID,919.017,VALID,0,VALID,68.7785,VALID,469.625,VALID,24.1873,VALID,98,VALID,2.51445,
2014-02-28, 10:29:04,VALID,919.027,VALID,0,VALID,68.4202,VALID,558.372,VALID,24.2068,VALID,89,VALID,1.94648,
2014-02-28, 10:30:04,VALID,918.983,VALID,0,VALID,68.9081,VALID,556.975,VALID,24.1891,VALID,155,VALID,1.00156,
2014-02-28, 10:31:04,VALID,918.974,VALID,0,VALID,68.7937,VALID,576.207,VALID,24.2068,VALID,139,VALID,2.30586,
2014-02-28, 10:32:04,VALID,918.97,VALID,0,VALID,68.0695,VALID,585.984,VALID,24.1659,VALID,146,VALID,3.25117,
2014-02-28, 10:33:04,VALID,918.934,VALID,0,VALID,69.0072,VALID,561.81,VALID,24.1092,VALID,121,VALID,2.83594,
2014-02-28, 10:34:04,VALID,918.925,VALID,0,VALID,68.9843,VALID,585.339,VALID,24.0311,VALID,163,VALID,3.08828,
2014-02-28, 10:35:04,VALID,918.958,VALID,0,VALID,67.8027,VALID,583.728,VALID,24.0701,VALID,129,VALID,2.65937,
2014-02-28, 10:36:04,VALID,918.93,VALID,0,VALID,70.6691,VALID,528.288,VALID,24.0701,VALID,88,VALID,1.22773,
2014-02-28, 10:37:04,VALID,918.912,VALID,0,VALID,68.4811,VALID,539.784,VALID,24.2068,VALID,83,VALID,3.58711,
2014-02-28, 10:38:04,VALID,918.982,VALID,0,VALID,68.4964,VALID,581.579,VALID,24.0878,VALID,130,VALID,4.32617,
2014-02-28, 10:39:04,VALID,918.888,VALID,0,VALID,68.9538,VALID,542.9,VALID,24.0896,VALID,86,VALID,3.91875,
2014-02-28, 10:40:04,VALID,918.896,VALID,0,VALID,69.1291,VALID,585.554,VALID,24.1073,VALID,89,VALID,2.52734,
2014-02-28, 10:41:04,VALID,918.9,VALID,0,VALID,68.8471,VALID,621.01,VALID,24.3044,VALID,156,VALID,1.7293,
2014-02-28, 10:42:04,VALID,918.85,VALID,0,VALID,69.0453,VALID,408.599,VALID,24.4783,VALID,110,VALID,1.92773,
2014-02-28, 10:43:04,VALID,918.87,VALID,0,VALID,68.1838,VALID,381.738,VALID,24.5778,VALID,140,VALID,1.96289,
2014-02-28, 10:44:04,VALID,918.832,VALID,0,VALID,68.3897,VALID,387.11,VALID,24.4216,VALID,139,VALID,3.35273,
2014-02-28, 10:45:04,VALID,918.901,VALID,0,VALID,68.0847,VALID,555.363,VALID,24.3044,VALID,112,VALID,2.12305,
2014-02-28, 10:46:04,VALID,918.975,VALID,0,VALID,68.7785,VALID,507.015,VALID,24.244,VALID,124,VALID,3.54883,
2014-02-28, 10:47:04,VALID,918.946,VALID,0,VALID,67.452,VALID,580.075,VALID,24.244,VALID,130,VALID,3.41016,
2014-02-28, 10:48:04,VALID,918.891,VALID,0,VALID,67.9018,VALID,452.757,VALID,24.1464,VALID,149,VALID,4.91445,
2014-02-28, 10:49:04,VALID,918.921,VALID,0,VALID,66.8955,VALID,404.409,VALID,24.1854,VALID,114,VALID,2.675,
2014-02-28, 10:50:04,VALID,918.882,VALID,0,VALID,66.7354,VALID,374.11,VALID,24.1854,VALID,95,VALID,3.03203,
2014-02-28, 10:51:04,VALID,918.92,VALID,0,VALID,67.3757,VALID,512.494,VALID,24.1659,VALID,118,VALID,2.18789,
2014-02-28, 10:52:04,VALID,918.896,VALID,0,VALID,68.3744,VALID,598.232,VALID,24.2068,VALID,88,VALID,0.835938,